Other Public Products
Issued by NWS Charleston, SC

Home | Current Version | Previous Version | Text Only | Print | Product List | Glossary On
Versions: 1 2 3 4 5 6 7 8 9 10 11 12 13 14 15 16 17 18 19 20 21 22 23 24 25 26 27 28 29 30 31 32 33 34 35 36 37 38 39 40 41 42 43 44 45 46 47 48 49 50
157
FPUS82 KCHS 171927
OPUCHS

TEST...KCHS/KSAV Gateway Observations...TEST
National Weather Service Charleston SC
200 PM EST TUE JAN 17 2017

NOTE: "fair" indicates few or no clouds below 12,000 feet with no
significant weather and/or obstructions to visibility.

SCZ050-WAZ558-NCZ071-TXZ119-213-PAZ071-DCZ001-FLZ074-172-MI076-
NYZ176-178-MAZ016-IL014-TNZ027-NJZ106-GAZ044-MD014-172000-
...Gateway Observations for Charleston International...

CITY           SKY/WX    TMP DP  RH WIND       PRES   REMARKS
Chas Airport   MOSUNNY   76  59  55 W10       30.18F
Seattle        CLOUDY    44  39  82 SE3       29.76S
Charlotte      CLOUDY    61  53  75 SW13      30.15F
Dallas DFW     CLOUDY    50  37  61 NE3       30.17F
Dallas Love    CLOUDY    50  37  61 CALM      30.18F
Philladelphia  CLOUDY    44  40  85 SE5       30.10F FOG
Wash National  CLOUDY    47  45  93 S7        30.05F FOG
Baltimore      CLOUDY    44  44 100 E6        30.04F FOG
Miami          PTSUNNY   80  61  52 SE10      30.19F
Detroit        CLOUDY    48  45  89 SW12      29.76S FOG
Newark         CLOUDY    40  36  86 NE5       30.12F FOG     WCI  37
Laguardia      LGT RAIN  40  36  86 E7        30.13F FOG     WCI  35
J F K          LGT RAIN  40  35  83 E6        30.14F WCI  36
Boston Logan   PTSUNNY   42  30  62 NE13      30.20F
Ft. Lauderdale MOSUNNY   79  63  57 SE16      30.18F
Chicago O`Hare CLOUDY    38  36  92 W9        29.85S WCI  31
Chicago Midway CLOUDY    37  36  96 W10       29.86S WCI  30
Houston Bush   LGT RAIN  60  58  92 NE15      30.07F VSB 1
Houston Hobby  CLOUDY    64  61  90 N12       30.06F
Nashville      CLOUDY    62  55  77 SW13      30.01F
Atlanta        PTSUNNY   74  55  51 S17       30.14F

$$

GAZ044-118-TXZ119-213-NCZ071-DCZ001-MDZ014-506-PAZ021-071-NJZ106-
NYZ176-178-MAZ106-OHZ011-021-055-MIZ076-KYZ091-ILZ014-INZ047-
MNZ060-172000-
...Gateway Observations for Savannah International...

CITY           SKY/WX    TMP DP  RH WIND       PRES   REMARKS
Savannah Arpt  MOSUNNY   75  56  51 SW8       30.20F
Atlanta        PTSUNNY   74  55  51 S17       30.14F
Charlotte      CLOUDY    61  53  75 SW13      30.15F
Dallas DFW     CLOUDY    50  37  61 NE3       30.17F
Houston Bush   LGT RAIN  60  58  92 NE15      30.07F VSB 1
Wash National  CLOUDY    47  45  93 S7        30.05F FOG
Wash Dulles    RAIN      45  43  93 S5        30.02F FOG
Baltimore      CLOUDY    44  44 100 E6        30.04F FOG
Philadelphia   CLOUDY    44  40  85 SE5       30.10F FOG
Newark         CLOUDY    40  36  86 NE5       30.12F FOG     WCI  37
Laguardia      LGT RAIN  40  36  86 E7        30.13F FOG     WCI  35
J F K          LGT RAIN  40  35  83 E6        30.14F WCI  36
Boston         PTSUNNY   42  30  62 NE13      30.20F
Pittsburg      PTSUNNY   62  54  74 SW18      29.82F
Akron          CLOUDY    59  49  69 W15       29.80F
Cleveland      CLOUDY    59  48  67 W16G25    29.81S
Cincinnati     PTSUNNY   57  50  77 W20G32    29.89F
Columbus         N/A     58  52  80 W12       29.86S
Detroit        CLOUDY    48  45  89 SW12      29.76S FOG
Chicago O`Hare CLOUDY    38  36  92 W9        29.85S WCI  31
Minneapolis    CLOUDY    35  28  75 NW12      29.96F WCI  27
Indianapolis   CLOUDY    47  41  80 SW13      29.93R

$$




USA.gov is the U.S. government's official web portal to all federal, state and local government web resources and services.